Regional Weather Roundup
Issued by NWS Boston, MA

Home | Current Version | Previous Version | Text Only | Print | Product List | Glossary On
Versions: 1 2 3 4 5 6 7 8 9 10 11 12 13 14 15 16 17 18 19 20 21 22 23 24 25 26 27 28 29 30 31 32 33 34 35 36 37 38 39 40 41 42 43 44 45 46 47 48 49 50
000
ASUS41 KBOX 281010
RWRBOX

REGIONAL WEATHER ROUNDUP
NATIONAL WEATHER SERVICE TAUNTON MA
500 AM EST WED JAN 28 2015

NOTE:  "FAIR" INDICATES FEW OR NO CLOUDS BELOW 12,000 FEET WITH NO
SIGNIFICANT WEATHER AND/OR OBSTRUCTIONS TO VISIBILITY.  THE FOLLOWING
OBSERVATION LOCATIONS DO NOT REPORT PRESENT WEATHER...PROVINCETOWN...
SMITHFIELD...BLOCK ISLAND...KEENE...AND OXFORD.

MAZALL-281100-
EASTERN MASSACHUSETTS

CITY           SKY/WX    TMP DP  RH WIND       PRES   REMARKS
BOSTON         LGT SNOW  13   6  74 NW14G25   29.79R WCI  -2
BEVERLY        LGT SNOW  13   6  74 NW9       29.76R WCI   1
LAWRENCE       MIX PCPN  13   3  64 NW9       29.79R WCI   1
BEDFORD        MOCLDY    10   3  73 W9        29.78R WCI  -3
BLUE HILL        N/A      9   4  80 MISG      29.72R
NORWOOD        MOCLDY    12   4  70 NW5       29.79R WCI   4
MARSHFIELD     FLURRIES  18  10  73 NW9G16    29.77R WCI   6
PLYMOUTH       PTCLDY    12   6  77 W10       29.76R WCI  -1
TAUNTON        CLOUDY    14   4  64 NW7       29.78R WCI   4
NEW BEDFORD    CLOUDY    14   5  67 NW9       29.77R WCI   2
$$

MAZALL-281100-
CAPE COD AND THE ISLANDS

CITY           SKY/WX    TMP DP  RH WIND       PRES   REMARKS
FALMOUTH       CLOUDY    14   7  73 NW15      29.75R WCI  -1
HYANNIS        CLOUDY    16  32 100 W9G17     29.72R FOG     WCI   4
CHATHAM        LGT SNOW  21  17  84 NW12G20   29.72R FOG     WCI   9
PROVINCETOWN   CLOUDY    21  16  79 NW22G30   29.72R WCI   5
NANTUCKET      CLOUDY    19  13  77 NW17      29.74R WCI   4
MARTHAS VNYRD  MIX PCPN  15   6  67 MISG      29.76R
$$

MAZALL-281100-
CENTRAL AND WESTERN MASSACHUSETTS

CITY           SKY/WX    TMP DP  RH WIND       PRES   REMARKS
WORCESTER      CLEAR      7   0  73 NW21G30   29.72R WCI -13
FITCHBURG      PTCLDY    10   0  63 NW12      29.79R WCI  -5
ORANGE         PTCLDY    10  -1  61 NW10      29.81R WCI  -4
SPRINGFIELD    CLEAR     13  -1  54 N12G23    29.85R WCI  -1
WESTFIELD      PTCLDY    13   0  56 NW9       29.86R WCI   1
NORTH ADAMS    CLOUDY     9   0  67 W12G22    29.88R WCI  -6
PITTSFIELD     CLOUDY     9   1  70 NW16G25   29.82R WCI  -8
$$

RIZALL-281100-
RHODE ISLAND

CITY           SKY/WX    TMP DP  RH WIND       PRES   REMARKS
PROVIDENCE     PTCLDY    13   2  61 NW10      29.81R WCI   0
NEWPORT        CLOUDY    14   4  64 NW12      29.79R WCI   0
BLOCK ISLAND   PTCLDY    16   5  62 NW15G21   29.79R WCI   1
SMITHFIELD     MOCLDY    10   0  61 W9        29.75R WCI  -2
WESTERLY       CLEAR     13   3  64 NW8G20    29.83R WCI   2
$$

CTZALL-281100-
CONNECTICUT

CITY           SKY/WX    TMP DP  RH WIND       PRES   REMARKS
BRADLEY INTL   PTCLDY    14   0  53 NW10      29.86R WCI   1
HARTFORD       FLURRIES  14   2  58 NW9       29.89R WCI   2
BRIDGEPORT     PTCLDY    16   4  59 NW14      29.90R WCI   2
DANBURY        MOCLDY    14  -2  49 NW8       29.90R WCI   3
GROTON         PTCLDY    13   4  67 NW15G23   29.84R WCI  -3
NEW HAVEN      MOCLDY    17   5  59 NW13G24   29.88R WCI   4
CHESTER        FAIR      14   5  67 N10G16    29.84R WCI   1
MERIDEN        PTCLDY    15   2  56 NW7       29.88R WCI   5
WILLIMANTIC    CLOUDY    14   0  53 NW12      29.84R WCI   0
OXFORD         MOCLDY    12  -2  52 NW8       29.84R WCI   1
$$

MEZ002-015-021-024-NHZ003-005-008-011-012-014-VTZ005-008-281100-
NORTHERN NEW ENGLAND

CITY           SKY/WX    TMP DP  RH WIND       PRES   REMARKS
PORTLAND ME    CLOUDY    15   8  73 NW16      29.72R WCI  -1
BANGOR ME      LGT SNOW  13   9  84 N17       29.70R VSB 1   WCI  -4
CONCORD NH     CLOUDY    12   1  61 NW13      29.78R WCI  -3
MANCHESTER NH  CLOUDY    12   2  64 NW9       29.77R WCI   0
NASHUA NH        N/A     12   2  64 NW14      29.80R WCI  -3
PORTSMOUTH NH  CLOUDY    15   8  73 NW8       29.75R WCI   4
JAFFREY NH     PTCLDY     7  -1  70 VRB3      29.75R
KEENE NH       MOCLDY    10   0  61 N14G24    29.82R WCI  -5
BURLINGTON VT  MOCLDY     6  -1  73 N8        30.01R WCI  -7
MT. WASHINGTON SNOWSHWR  -2  -2 100 N53         N/A  VSB 1/16WCI -35
$$

NYZ052-076-281100-
EASTERN NEW YORK

CITY           SKY/WX    TMP DP  RH WIND       PRES   REMARKS
ALBANY         CLOUDY    13   0  56 N8        29.96R WCI   2
NEW YORK CITY  CLOUDY    18   3  52 NW18      29.92S WCI   2
$$

ANZALL-281100-
MARINE OBSERVATIONS

STATION/POSITION TIME  TEMP    WIND        PRES    VSBY  WAVE
                       AIR SEA DIR/SP/G                  HT/PER
                 (UTC) (F)     (DEG/KT/KT) (MB)    (MI)  (FT/S)
BOSTON BUOY      0950   18 41  330/ 23/ 27 1006.8R        15/11
BUZZARDS BAY     0900          320/ 21/ 24 1008.2R
NANTUCKET SOUND  NOT AVBL
MASS BAY-STELLWA 0904   18 41  320/ 19/ 25   N/A    1 7/8
ISLE OF SHOALS   1000   17     320/ 18/ 21 1006.7R
S OF BLOCK IS    0908      43                N/A           6/ 5
$$

......................KEY.........................
  SKY/WX - SKY CONDITION/PRESENT WEATHER
  TMP    - TEMPERATURE IN FAHRENHEIT
  DWPT   - DEWPOINT IN FAHRENHEIT
  RH     - RELATIVE HUMIDITY IN PERCENT
  WIND   - DIRECTION AND SPEED IN MPH
  PRES   - MEAN SEA LEVEL PRESSURE IN INCHES OF HG
  WCI    - WIND CHILL INDEX
  VSB    - VISIBILITY IN MILES
  HX     - HEAT INDEX
  TC     - TEMPERATURE IN CELSIUS
  VRB    - VARIABLE WIND DIRECTION
  N/A    - NOT AVAILABLE



USA.gov is the U.S. government's official web portal to all federal, state and local government web resources and services.